Time,TemperatureF,DewpointF,PressureIn,WindDirection,WindDirectionDegrees,WindSpeedMPH,WindSpeedGustMPH,Humidity,HourlyPrecipIn,Conditions,Clouds,dailyrainin,SoftwareType,DateUTC
2013-02-15 00:02:00,33.0,27.0,29.95,West,278,10.0,14.0,78,0.00,,,0.00,,2013-02-15 05:02:00,
2013-02-15 00:12:00,33.0,27.0,29.95,West,278,10.0,14.0,78,0.00,,,0.00,,2013-02-15 05:12:00,
2013-02-15 00:22:00,32.0,27.0,29.94,West,281,5.0,10.0,80,0.00,,,0.00,,2013-02-15 05:22:00,
2013-02-15 00:32:00,32.0,26.0,29.94,WNW,291,6.0,9.0,78,0.00,,,0.00,,2013-02-15 05:32:00,
2013-02-15 00:42:00,32.0,26.0,29.94,WNW,291,6.0,9.0,78,0.00,,,0.00,,2013-02-15 05:42:00,
2013-02-15 00:52:00,32.0,26.0,29.94,WNW,291,6.0,9.0,78,0.00,,,0.00,,2013-02-15 05:52:00,
2013-02-15 01:02:00,32.0,25.0,29.95,WSW,245,5.0,10.0,76,0.00,,,0.00,,2013-02-15 06:02:00,
2013-02-15 01:11:00,32.0,25.0,29.95,WSW,245,5.0,10.0,76,0.00,,,0.00,,2013-02-15 06:11:00,
2013-02-15 01:22:00,32.0,25.0,29.95,WSW,245,5.0,10.0,76,0.00,,,0.00,,2013-02-15 06:22:00,
2013-02-15 01:32:00,31.0,25.0,29.94,West,261,4.0,8.0,77,0.00,,,0.00,,2013-02-15 06:32:00,
2013-02-15 01:42:00,31.0,25.0,29.94,West,261,4.0,8.0,77,0.00,,,0.00,,2013-02-15 06:42:00,
2013-02-15 01:52:00,31.0,25.0,29.95,WSW,245,3.0,8.0,78,0.00,,,0.00,,2013-02-15 06:52:00,
2013-02-15 02:01:00,31.0,25.0,29.95,WSW,256,4.0,7.0,78,0.00,,,0.00,,2013-02-15 07:01:00,
2013-02-15 02:11:00,31.0,25.0,29.95,WSW,256,4.0,7.0,78,0.00,,,0.00,,2013-02-15 07:11:00,
2013-02-15 02:21:00,31.0,25.0,29.95,WSW,256,4.0,7.0,78,0.00,,,0.00,,2013-02-15 07:21:00,
2013-02-15 02:32:00,30.0,24.0,29.95,WSW,242,2.0,5.0,78,0.00,,,0.00,,2013-02-15 07:32:00,
2013-02-15 02:42:00,30.0,24.0,29.95,WSW,242,2.0,5.0,78,0.00,,,0.00,,2013-02-15 07:42:00,
2013-02-15 02:52:00,30.0,24.0,29.96,WSW,251,3.0,6.0,79,0.00,,,0.00,,2013-02-15 07:52:00,
2013-02-15 03:01:00,30.0,24.0,29.96,WSW,237,3.0,7.0,79,0.00,,,0.00,,2013-02-15 08:01:00,
2013-02-15 03:11:00,30.0,24.0,29.96,WSW,237,3.0,7.0,79,0.00,,,0.00,,2013-02-15 08:11:00,
2013-02-15 03:21:00,29.0,24.0,29.96,WSW,240,2.0,7.0,80,0.00,,,0.00,,2013-02-15 08:21:00,
2013-02-15 03:32:00,30.0,25.0,29.97,WSW,243,4.0,7.0,81,0.00,,,0.00,,2013-02-15 08:32:00,
2013-02-15 03:42:00,30.0,25.0,29.97,WSW,243,4.0,7.0,81,0.00,,,0.00,,2013-02-15 08:42:00,
2013-02-15 03:52:00,30.0,25.0,29.97,WSW,246,4.0,7.0,80,0.00,,,0.00,,2013-02-15 08:52:00,
2013-02-15 04:02:00,30.0,25.0,29.96,West,261,3.0,7.0,80,0.00,,,0.00,,2013-02-15 09:02:00,
2013-02-15 04:12:00,30.0,25.0,29.96,West,261,3.0,7.0,80,0.00,,,0.00,,2013-02-15 09:12:00,
2013-02-15 04:22:00,30.0,25.0,29.97,WSW,258,4.0,8.0,80,0.00,,,0.00,,2013-02-15 09:22:00,
2013-02-15 04:32:00,30.0,25.0,29.96,WSW,257,3.0,8.0,80,0.00,,,0.00,,2013-02-15 09:32:00,
2013-02-15 04:42:00,30.0,25.0,29.96,WSW,257,3.0,8.0,80,0.00,,,0.00,,2013-02-15 09:42:00,
2013-02-15 04:52:00,30.0,25.0,29.97,West,268,3.0,8.0,81,0.00,,,0.00,,2013-02-15 09:52:00,
2013-02-15 05:01:00,29.0,24.0,29.97,WSW,248,3.0,6.0,81,0.00,,,0.00,,2013-02-15 10:01:00,
2013-02-15 05:11:00,29.0,24.0,29.97,WSW,248,3.0,6.0,81,0.00,,,0.00,,2013-02-15 10:11:00,
2013-02-15 05:21:00,29.0,24.0,29.98,SW,236,4.0,7.0,82,0.00,,,0.00,,2013-02-15 10:21:00,
2013-02-15 05:32:00,29.0,24.0,29.98,SW,234,3.0,6.0,81,0.00,,,0.00,,2013-02-15 10:32:00,
2013-02-15 05:42:00,29.0,24.0,29.98,SW,234,3.0,6.0,81,0.00,,,0.00,,2013-02-15 10:42:00,
2013-02-15 05:52:00,29.0,24.0,29.98,WSW,254,3.0,7.0,81,0.00,,,0.00,,2013-02-15 10:52:00,
2013-02-15 06:01:00,29.0,24.0,29.99,West,266,4.0,7.0,82,0.00,,,0.00,,2013-02-15 11:01:00,
2013-02-15 06:11:00,29.0,24.0,29.99,West,266,4.0,7.0,82,0.00,,,0.00,,2013-02-15 11:11:00,
2013-02-15 06:23:00,29.0,24.0,29.99,West,264,3.0,6.0,80,0.00,,,0.00,,2013-02-15 11:23:00,
2013-02-15 06:32:00,29.0,24.0,30.00,West,263,1.0,7.0,80,0.00,,,0.00,,2013-02-15 11:32:00,
2013-02-15 06:42:00,29.0,24.0,30.00,West,263,1.0,7.0,80,0.00,,,0.00,,2013-02-15 11:42:00,
2013-02-15 06:52:00,29.0,24.0,30.00,WSW,256,1.0,4.0,81,0.00,,,0.00,,2013-02-15 11:52:00,
2013-02-15 07:02:00,29.0,24.0,30.01,West,259,1.0,4.0,82,0.00,,,0.00,,2013-02-15 12:02:00,
2013-02-15 07:11:00,29.0,24.0,30.01,West,259,1.0,4.0,82,0.00,,,0.00,,2013-02-15 12:11:00,
2013-02-15 07:22:00,29.0,24.0,30.01,WSW,257,2.0,5.0,81,0.00,,,0.00,,2013-02-15 12:22:00,
2013-02-15 07:32:00,29.0,25.0,30.01,West,275,1.0,4.0,83,0.00,,,0.00,,2013-02-15 12:32:00,
2013-02-15 07:42:00,29.0,25.0,30.01,West,275,1.0,4.0,83,0.00,,,0.00,,2013-02-15 12:42:00,
2013-02-15 07:52:00,29.0,25.0,30.02,West,276,1.0,3.0,83,0.00,,,0.00,,2013-02-15 12:52:00,
2013-02-15 08:02:00,29.0,25.0,30.02,WNW,288,1.0,5.0,83,0.00,,,0.00,,2013-02-15 13:02:00,
2013-02-15 08:11:00,29.0,25.0,30.02,WNW,288,1.0,5.0,83,0.00,,,0.00,,2013-02-15 13:11:00,
2013-02-15 08:22:00,30.0,25.0,30.03,WNW,290,2.0,6.0,83,0.00,,,0.00,,2013-02-15 13:22:00,
2013-02-15 08:32:00,30.0,25.0,30.04,NW,315,2.0,6.0,83,0.00,,,0.00,,2013-02-15 13:32:00,
2013-02-15 08:42:00,30.0,25.0,30.04,NW,315,2.0,6.0,83,0.00,,,0.00,,2013-02-15 13:42:00,
2013-02-15 08:52:00,30.0,26.0,30.04,NW,316,2.0,4.0,84,0.00,,,0.00,,2013-02-15 13:52:00,
2013-02-15 09:01:00,30.0,26.0,30.05,NW,316,0.0,2.0,85,0.00,,,0.00,,2013-02-15 14:01:00,
2013-02-15 09:12:00,30.0,26.0,30.05,NW,316,0.0,2.0,85,0.00,,,0.00,,2013-02-15 14:12:00,
2013-02-15 09:22:00,30.0,26.0,30.06,NW,314,0.0,4.0,84,0.00,,,0.00,,2013-02-15 14:22:00,
2013-02-15 09:32:00,30.0,25.0,30.07,NW,314,0.0,4.0,83,0.00,,,0.00,,2013-02-15 14:32:00,
2013-02-15 09:42:00,30.0,25.0,30.07,NW,314,0.0,4.0,83,0.00,,,0.00,,2013-02-15 14:42:00,
2013-02-15 09:52:00,30.0,25.0,30.07,NW,313,2.0,4.0,83,0.00,,,0.00,,2013-02-15 14:52:00,
2013-02-15 10:02:00,30.0,26.0,30.08,NNW,337,2.0,6.0,84,0.00,,,0.00,,2013-02-15 15:02:00,
2013-02-15 10:11:00,30.0,26.0,30.08,NNW,337,2.0,6.0,84,0.00,,,0.00,,2013-02-15 15:11:00,
2013-02-15 10:22:00,30.0,26.0,30.08,North,5,2.0,6.0,86,0.00,,,0.00,,2013-02-15 15:22:00,
2013-02-15 10:32:00,29.0,26.0,30.08,North,5,3.0,7.0,88,0.00,,,0.00,,2013-02-15 15:32:00,
2013-02-15 10:42:00,29.0,26.0,30.08,North,5,3.0,7.0,88,0.00,,,0.00,,2013-02-15 15:42:00,
2013-02-15 10:52:00,29.0,26.0,30.08,NNW,342,3.0,6.0,88,0.00,,,0.00,,2013-02-15 15:52:00,
2013-02-15 11:02:00,29.0,26.0,30.09,NNE,17,3.0,6.0,89,0.00,,,0.00,,2013-02-15 16:02:00,
2013-02-15 11:12:00,29.0,26.0,30.09,NNE,17,3.0,6.0,89,0.00,,,0.00,,2013-02-15 16:12:00,
2013-02-15 11:22:00,29.0,26.0,30.09,NNE,17,3.0,6.0,89,0.00,,,0.00,,2013-02-15 16:22:00,
2013-02-15 11:32:00,29.0,26.0,30.09,NNE,29,3.0,8.0,89,0.00,,,0.00,,2013-02-15 16:32:00,
2013-02-15 11:43:00,29.0,26.0,30.09,NNE,29,3.0,8.0,89,0.00,,,0.00,,2013-02-15 16:43:00,
2013-02-15 11:52:00,29.0,25.0,30.09,NNW,341,4.0,8.0,86,0.00,,,0.00,,2013-02-15 16:52:00,
2013-02-15 12:01:00,29.0,25.0,30.09,NNW,347,5.0,10.0,83,0.00,,,0.00,,2013-02-15 17:01:00,
2013-02-15 12:11:00,29.0,24.0,30.10,NNW,347,5.0,9.0,82,0.00,,,0.00,,2013-02-15 17:11:00,
2013-02-15 12:21:00,29.0,24.0,30.10,NNW,347,5.0,9.0,82,0.00,,,0.00,,2013-02-15 17:21:00,
2013-02-15 12:32:00,29.0,24.0,30.10,NNE,13,5.0,9.0,82,0.00,,,0.00,,2013-02-15 17:32:00,
2013-02-15 12:42:00,29.0,24.0,30.10,NNE,13,5.0,9.0,82,0.00,,,0.00,,2013-02-15 17:42:00,
2013-02-15 12:52:00,29.0,25.0,30.10,NNW,342,5.0,9.0,84,0.00,,,0.00,,2013-02-15 17:52:00,
2013-02-15 13:02:00,29.0,25.0,30.10,NNW,327,5.0,9.0,86,0.00,,,0.00,,2013-02-15 18:02:00,
2013-02-15 13:12:00,29.0,25.0,30.10,NNW,327,5.0,9.0,86,0.00,,,0.00,,2013-02-15 18:12:00,
2013-02-15 13:21:00,29.0,25.0,30.10,North,360,6.0,10.0,83,0.00,,,0.00,,2013-02-15 18:21:00,
2013-02-15 13:32:00,30.0,26.0,30.09,NW,321,7.0,12.0,85,0.00,,,0.00,,2013-02-15 18:32:00,
2013-02-15 13:42:00,30.0,26.0,30.09,NW,321,7.0,12.0,85,0.00,,,0.00,,2013-02-15 18:42:00,
2013-02-15 13:52:00,30.0,25.0,30.09,NW,325,6.0,11.0,83,0.00,,,0.00,,2013-02-15 18:52:00,
2013-02-15 14:02:00,30.0,25.0,30.09,NW,325,6.0,11.0,83,0.00,,,0.00,,2013-02-15 19:02:00,
2013-02-15 14:11:00,30.0,25.0,30.09,NW,325,6.0,11.0,83,0.00,,,0.00,,2013-02-15 19:11:00,
2013-02-15 14:22:00,31.0,24.0,30.09,NNW,335,6.0,12.0,75,0.00,,,0.00,,2013-02-15 19:22:00,
2013-02-15 14:32:00,32.0,24.0,30.09,West,277,8.0,11.0,71,0.00,,,0.00,,2013-02-15 19:32:00,
2013-02-15 14:42:00,32.0,24.0,30.09,West,277,8.0,11.0,71,0.00,,,0.00,,2013-02-15 19:42:00,
2013-02-15 14:52:00,32.0,23.0,30.09,NW,326,9.0,13.0,69,0.00,,,0.00,,2013-02-15 19:52:00,
2013-02-15 15:02:00,32.0,23.0,30.09,NW,307,10.0,14.0,68,0.00,,,0.00,,2013-02-15 20:02:00,
2013-02-15 15:11:00,32.0,23.0,30.09,NW,307,10.0,14.0,68,0.00,,,0.00,,2013-02-15 20:11:00,
2013-02-15 15:21:00,31.0,21.0,30.09,WNW,296,8.0,16.0,67,0.00,,,0.00,,2013-02-15 20:21:00,
2013-02-15 15:32:00,32.0,22.0,30.09,West,281,7.0,13.0,67,0.00,,,0.00,,2013-02-15 20:32:00,
2013-02-15 15:42:00,32.0,22.0,30.09,West,281,7.0,13.0,67,0.00,,,0.00,,2013-02-15 20:42:00,
2013-02-15 15:52:00,32.0,23.0,30.09,NW,309,10.0,15.0,69,0.00,,,0.00,,2013-02-15 20:52:00,
2013-02-15 16:02:00,31.0,22.0,30.09,WNW,303,9.0,14.0,69,0.00,,,0.00,,2013-02-15 21:02:00,
2013-02-15 16:11:00,31.0,22.0,30.09,WNW,303,9.0,14.0,69,0.00,,,0.00,,2013-02-15 21:11:00,
2013-02-15 16:22:00,31.0,23.0,30.10,WNW,295,9.0,14.0,71,0.00,,,0.00,,2013-02-15 21:22:00,
2013-02-15 16:32:00,30.0,22.0,30.11,WNW,288,9.0,14.0,72,0.00,,,0.00,,2013-02-15 21:32:00,
2013-02-15 16:42:00,30.0,22.0,30.11,WNW,288,9.0,14.0,72,0.00,,,0.00,,2013-02-15 21:42:00,
2013-02-15 16:52:00,30.0,23.0,30.11,West,273,8.0,13.0,74,0.00,,,0.00,,2013-02-15 21:52:00,
2013-02-15 17:02:00,31.0,23.0,30.11,West,275,9.0,13.0,71,0.00,,,0.00,,2013-02-15 22:02:00,
2013-02-15 17:11:00,31.0,23.0,30.11,West,275,9.0,13.0,71,0.00,,,0.00,,2013-02-15 22:11:00,
2013-02-15 17:22:00,31.0,23.0,30.11,NW,310,7.0,14.0,72,0.00,,,0.00,,2013-02-15 22:22:00,
2013-02-15 17:32:00,30.0,21.0,30.12,WSW,253,9.0,14.0,69,0.00,,,0.00,,2013-02-15 22:32:00,
2013-02-15 17:42:00,30.0,21.0,30.12,WSW,253,9.0,14.0,69,0.00,,,0.00,,2013-02-15 22:42:00,
2013-02-15 17:52:00,31.0,21.0,30.12,West,275,7.0,13.0,66,0.00,,,0.00,,2013-02-15 22:52:00,
2013-02-15 18:02:00,29.0,19.0,30.13,WNW,292,6.0,13.0,65,0.00,,,0.00,,2013-02-15 23:02:00,
2013-02-15 18:11:00,29.0,19.0,30.13,WNW,292,6.0,13.0,65,0.00,,,0.00,,2013-02-15 23:11:00,
2013-02-15 18:21:00,29.0,19.0,30.13,WNW,285,9.0,12.0,65,0.00,,,0.00,,2013-02-15 23:21:00,
2013-02-15 18:32:00,29.0,19.0,30.13,WNW,283,8.0,12.0,67,0.00,,,0.00,,2013-02-15 23:32:00,
2013-02-15 18:42:00,29.0,19.0,30.13,WNW,283,8.0,12.0,67,0.00,,,0.00,,2013-02-15 23:42:00,
2013-02-15 18:52:00,28.0,20.0,30.13,NW,309,7.0,13.0,70,0.00,,,0.00,,2013-02-15 23:52:00,
2013-02-15 19:02:00,27.0,19.0,30.14,West,279,7.0,12.0,71,0.00,,,0.00,,2013-02-16 00:02:00,
2013-02-15 19:11:00,27.0,19.0,30.14,West,279,7.0,12.0,71,0.00,,,0.00,,2013-02-16 00:11:00,
2013-02-15 19:22:00,27.0,19.0,30.14,WNW,297,6.0,11.0,72,0.00,,,0.00,,2013-02-16 00:22:00,
2013-02-15 19:32:00,26.0,19.0,30.15,WNW,302,5.0,8.0,75,0.00,,,0.00,,2013-02-16 00:32:00,
2013-02-15 19:42:00,26.0,19.0,30.15,WNW,302,5.0,8.0,75,0.00,,,0.00,,2013-02-16 00:42:00,
2013-02-15 19:51:00,26.0,19.0,30.16,WNW,285,4.0,8.0,76,0.00,,,0.00,,2013-02-16 00:51:00,
2013-02-15 20:02:00,25.0,18.0,30.16,WNW,284,7.0,10.0,75,0.00,,,0.00,,2013-02-16 01:02:00,
2013-02-15 20:11:00,25.0,18.0,30.16,WNW,284,7.0,10.0,75,0.00,,,0.00,,2013-02-16 01:11:00,
2013-02-15 20:21:00,25.0,18.0,30.16,WNW,290,4.0,9.0,75,0.00,,,0.00,,2013-02-16 01:21:00,
2013-02-15 20:32:00,25.0,18.0,30.16,WNW,283,4.0,10.0,74,0.00,,,0.00,,2013-02-16 01:32:00,
2013-02-15 20:42:00,25.0,18.0,30.16,WNW,283,4.0,10.0,74,0.00,,,0.00,,2013-02-16 01:42:00,
2013-02-15 20:52:00,25.0,19.0,30.16,WNW,287,5.0,8.0,76,0.00,,,0.00,,2013-02-16 01:52:00,
2013-02-15 21:01:00,25.0,18.0,30.16,West,281,5.0,8.0,75,0.00,,,0.00,,2013-02-16 02:01:00,
2013-02-15 21:11:00,25.0,18.0,30.16,West,281,5.0,8.0,75,0.00,,,0.00,,2013-02-16 02:11:00,
2013-02-15 21:22:00,24.0,18.0,30.16,WNW,303,4.0,8.0,76,0.00,,,0.00,,2013-02-16 02:22:00,
2013-02-15 21:32:00,24.0,18.0,30.17,WNW,286,2.0,6.0,77,0.00,,,0.00,,2013-02-16 02:32:00,
2013-02-15 21:42:00,24.0,18.0,30.17,WNW,286,2.0,6.0,77,0.00,,,0.00,,2013-02-16 02:42:00,
2013-02-15 21:52:00,23.0,17.0,30.16,WNW,288,0.0,3.0,78,0.00,,,0.00,,2013-02-16 02:52:00,
2013-02-15 22:02:00,22.0,17.0,30.17,WNW,288,0.0,1.0,80,0.00,,,0.00,,2013-02-16 03:02:00,
2013-02-15 22:11:00,22.0,17.0,30.17,WNW,288,0.0,1.0,80,0.00,,,0.00,,2013-02-16 03:11:00,
2013-02-15 22:21:00,21.0,16.0,30.17,WNW,288,0.0,0.0,81,0.00,,,0.00,,2013-02-16 03:21:00,
2013-02-15 22:32:00,21.0,17.0,30.17,WNW,288,0.0,0.0,83,0.00,,,0.00,,2013-02-16 03:32:00,
2013-02-15 22:42:00,21.0,17.0,30.17,WNW,288,0.0,0.0,83,0.00,,,0.00,,2013-02-16 03:42:00,
2013-02-15 22:52:00,21.0,17.0,30.17,WNW,288,0.0,0.0,84,0.00,,,0.00,,2013-02-16 03:52:00,
2013-02-15 23:01:00,21.0,17.0,30.17,WNW,288,0.0,2.0,84,0.00,,,0.00,,2013-02-16 04:01:00,
2013-02-15 23:11:00,21.0,17.0,30.17,WNW,288,0.0,2.0,84,0.00,,,0.00,,2013-02-16 04:11:00,
2013-02-15 23:21:00,21.0,17.0,30.17,WNW,288,0.0,2.0,83,0.00,,,0.00,,2013-02-16 04:21:00,
2013-02-15 23:32:00,21.0,17.0,30.16,WNW,287,0.0,2.0,83,0.00,,,0.00,,2013-02-16 04:32:00,
2013-02-15 23:42:00,21.0,17.0,30.16,WNW,287,0.0,2.0,83,0.00,,,0.00,,2013-02-16 04:42:00,
2013-02-15 23:51:00,21.0,17.0,30.16,WNW,287,0.0,0.0,83,0.00,,,0.00,,2013-02-16 04:51:00,